timestamp,surface_pressure_avg,surface_temp_avg,battery_voltage,lat,long
2020-12-31 00:09:01+00:00,328.3829,4.3,12.49,47.84626,-54.09684
2020-12-31 00:19:01+00:00,330.478,4.3,12.49,47.84626,-54.09684
2020-12-31 00:29:01+00:00,325.048,4.34,12.49,47.84626,-54.09684
2020-12-31 00:39:01+00:00,319.8347,4.37,12.49,47.84626,-54.09684
2020-12-31 00:49:01+00:00,318.4813,4.33,12.49,47.84626,-54.09684
2020-12-31 00:59:01+00:00,315.0613,4.35,12.49,47.84626,-54.09684
2020-12-31 01:09:01+00:00,317.7596,4.3,12.49,47.84626,-54.09684
2020-12-31 01:19:01+00:00,319.2196,4.3,12.49,47.84626,-54.09684
2020-12-31 01:29:01+00:00,316.788,4.4,12.49,47.84626,-54.09684
2020-12-31 01:39:01+00:00,307.7697,4.3,12.49,47.84626,-54.09684
2020-12-31 01:49:01+00:00,310.58799999999997,4.28,12.49,47.84626,-54.09684
2020-12-31 01:59:01+00:00,307.183,4.3,12.49,47.84626,-54.09684
2020-12-31 02:09:01+00:00,298.9047,4.2,12.49,47.84626,-54.09684
2020-12-31 02:19:01+00:00,293.3164,4.13,12.49,47.84626,-54.09684
2020-12-31 02:29:01+00:00,294.5164,4.12,12.49,47.84626,-54.09684
2020-12-31 02:39:01+00:00,287.3081,4.1,12.49,47.84626,-54.09684
2020-12-31 02:49:01+00:00,277.3114,4.1,12.49,47.84626,-54.09684
2020-12-31 02:59:01+00:00,273.3047,4.1,12.49,47.84626,-54.09684
2020-12-31 03:09:01+00:00,268.663,4.09,12.49,47.84626,-54.09684
2020-12-31 03:19:01+00:00,258.7481,4.05,12.49,47.84626,-54.09684
2020-12-31 03:29:01+00:00,250.5547,4.0,12.49,47.84626,-54.09684
2020-12-31 03:39:01+00:00,246.2498,4.0,12.49,47.84626,-54.09684
2020-12-31 03:49:01+00:00,236.7564,3.96,12.49,47.84626,-54.09684
2020-12-31 03:59:01+00:00,227.2014,3.9,12.49,47.84626,-54.09684
2020-12-31 04:09:01+00:00,220.4131,3.9,12.49,47.84626,-54.09684
2020-12-31 04:19:01+00:00,213.7731,3.9,12.49,47.84626,-54.09684
2020-12-31 04:29:01+00:00,209.8381,3.9,12.49,47.84626,-54.09684
2020-12-31 04:39:01+00:00,205.8464,3.9,12.49,47.84626,-54.09684
2020-12-31 04:49:01+00:00,200.6698,3.9,12.49,47.84626,-54.09684
2020-12-31 04:59:01+00:00,198.3948,3.9,12.49,47.84626,-54.09684
2020-12-31 05:09:01+00:00,200.5314,3.9,12.49,47.84626,-54.09684
2020-12-31 05:19:01+00:00,200.4048,3.9,12.41,47.84626,-54.09684
2020-12-31 05:29:01+00:00,192.9381,3.9,12.41,47.84626,-54.09684
2020-12-31 05:39:01+00:00,190.7415,3.87,12.41,47.84626,-54.09684
2020-12-31 05:49:01+00:00,191.9498,3.84,12.41,47.84626,-54.09684
2020-12-31 05:59:01+00:00,191.4348,3.8,12.41,47.84626,-54.09684
2020-12-31 06:09:01+00:00,187.5098,3.7,12.41,47.84626,-54.09684
2020-12-31 06:19:01+00:00,191.7348,3.7,12.41,47.84626,-54.09684
2020-12-31 06:29:01+00:00,197.1715,3.7,12.41,47.84626,-54.09684
2020-12-31 06:39:01+00:00,194.3481,3.69,12.41,47.84626,-54.09684
2020-12-31 06:49:01+00:00,195.2715,3.7,12.41,47.84626,-54.09684
2020-12-31 06:59:01+00:00,201.5881,3.7,12.41,47.84626,-54.09684
2020-12-31 07:09:01+00:00,208.5314,3.7,12.41,47.84626,-54.09684
2020-12-31 07:19:01+00:00,208.3315,3.7,12.41,47.84626,-54.09684
2020-12-31 07:29:01+00:00,214.1748,3.7,12.41,47.84626,-54.09684
2020-12-31 07:39:01+00:00,225.9197,3.7,12.41,47.84626,-54.09684
2020-12-31 07:49:01+00:00,228.0731,3.7,12.41,47.84626,-54.09684
2020-12-31 07:59:01+00:00,230.0247,3.7,12.41,47.84626,-54.09684
2020-12-31 08:09:01+00:00,235.1631,3.76,12.41,47.84626,-54.09684
2020-12-31 08:19:01+00:00,241.1631,3.83,12.41,47.84626,-54.09684
2020-12-31 08:29:01+00:00,243.1481,3.92,12.41,47.84626,-54.09684
2020-12-31 08:39:01+00:00,246.2364,4.01,12.41,47.84626,-54.09684
2020-12-31 08:49:01+00:00,249.7831,4.07,12.41,47.84626,-54.09684
2020-12-31 08:59:01+00:00,254.1781,4.1,12.41,47.84626,-54.09684
2020-12-31 09:09:01+00:00,260.2781,4.19,12.41,47.84626,-54.09684
2020-12-31 09:19:01+00:00,269.3264,4.2,12.41,47.84626,-54.09684
2020-12-31 09:29:01+00:00,276.4398,4.2,12.41,47.84626,-54.09684
2020-12-31 09:39:01+00:00,278.8281,4.2,12.41,47.84626,-54.09684
2020-12-31 09:49:01+00:00,278.2131,4.2,12.41,47.84626,-54.09684
2020-12-31 09:59:01+00:00,283.2297,4.3,12.41,47.84626,-54.09684
2020-12-31 10:09:01+00:00,295.1663,4.26,12.41,47.84626,-54.09684
2020-12-31 10:19:01+00:00,309.7097,4.2,12.41,47.84626,-54.09684
2020-12-31 10:29:01+00:00,316.058,4.29,12.41,47.84626,-54.09684
2020-12-31 10:39:01+00:00,323.4897,4.29,12.41,47.84626,-54.09684
2020-12-31 10:49:01+00:00,331.4446,4.2,12.41,47.84626,-54.09684
2020-12-31 10:59:01+00:00,338.7346,4.2,12.41,47.84626,-54.09684
2020-12-31 11:09:01+00:00,345.4213,4.29,12.41,47.84626,-54.09684
2020-12-31 11:19:01+00:00,353.1379,4.2,12.41,47.84626,-54.09684
2020-12-31 11:29:01+00:00,359.11300000000006,4.2,12.41,47.84626,-54.09684
2020-12-31 11:39:01+00:00,360.3863,4.2,12.41,47.84626,-54.09684
2020-12-31 11:49:01+00:00,365.6813,4.2,12.41,47.84626,-54.09684
2020-12-31 11:59:01+00:00,371.2712,4.2,12.41,47.84626,-54.09684
2020-12-31 12:09:01+00:00,375.8896,4.3,12.41,47.84626,-54.09684
2020-12-31 12:19:01+00:00,379.3779,4.3,12.89,47.84626,-54.09684
2020-12-31 12:29:01+00:00,379.1212,4.35,12.89,47.84626,-54.09684
2020-12-31 12:39:01+00:00,376.5346,4.4,12.89,47.84626,-54.09684
2020-12-31 12:49:01+00:00,375.05300000000005,4.4,12.89,47.84626,-54.09684
2020-12-31 12:59:01+00:00,374.1479,4.47,12.89,47.84626,-54.09684
2020-12-31 13:09:01+00:00,369.5696,4.52,12.89,47.84626,-54.09684
2020-12-31 13:19:01+00:00,366.7329,4.5,13.29,47.84626,-54.09684
2020-12-31 13:29:01+00:00,365.903,4.46,13.29,47.84626,-54.09684
2020-12-31 13:39:01+00:00,366.7446,4.4,13.29,47.84626,-54.09684
2020-12-31 13:49:01+00:00,360.0663,4.3,13.29,47.84626,-54.09684
2020-12-31 13:59:01+00:00,360.098,4.3,13.29,47.84626,-54.09684
2020-12-31 14:09:01+00:00,364.2579,4.2,13.29,47.84626,-54.09684
2020-12-31 14:19:01+00:00,355.0895,4.06,13.13,47.84626,-54.09684
2020-12-31 14:29:01+00:00,345.7647,3.9,13.13,47.84626,-54.09684
2020-12-31 14:39:01+00:00,345.3781,3.97,13.13,47.84626,-54.09684
2020-12-31 14:49:01+00:00,338.463,4.0,13.13,47.84626,-54.09684
2020-12-31 14:59:01+00:00,327.6396,3.89,13.13,47.84626,-54.09684
2020-12-31 15:09:01+00:00,323.2979,3.9,13.13,47.84626,-54.09684
2020-12-31 15:19:01+00:00,321.263,3.9,13.05,47.84626,-54.09684
2020-12-31 15:29:01+00:00,309.3531,3.8,13.05,47.84626,-54.09684
2020-12-31 15:39:01+00:00,303.4714,3.6,13.05,47.84626,-54.09684
2020-12-31 15:49:01+00:00,295.5881,3.6,13.05,47.84626,-54.09684
2020-12-31 15:59:01+00:00,287.4181,3.57,13.05,47.84626,-54.09684
2020-12-31 16:09:01+00:00,280.0565,3.5,13.05,47.84626,-54.09684
2020-12-31 16:19:01+00:00,279.3231,3.69,12.89,47.84626,-54.09684
2020-12-31 16:29:01+00:00,264.2964,3.5,12.89,47.84626,-54.09684
2020-12-31 16:39:01+00:00,249.2198,3.48,12.89,47.84626,-54.09684
2020-12-31 16:49:01+00:00,246.1647,3.49,12.89,47.84626,-54.09684
2020-12-31 16:59:01+00:00,238.6198,3.5,12.89,47.84626,-54.09684
2020-12-31 17:09:01+00:00,226.2432,3.53,12.89,47.84626,-54.09684
2020-12-31 17:19:01+00:00,222.8447,3.62,12.81,47.84626,-54.09684
2020-12-31 17:29:01+00:00,222.3881,3.7,12.81,47.84626,-54.09684
2020-12-31 17:39:01+00:00,212.0765,3.7,12.81,47.84626,-54.09684
2020-12-31 17:49:01+00:00,203.9348,3.79,12.81,47.84626,-54.09684
2020-12-31 17:59:01+00:00,204.6348,3.8,12.81,47.84626,-54.09684
2020-12-31 18:09:01+00:00,203.2365,3.88,12.81,47.84626,-54.09684
2020-12-31 18:19:01+00:00,198.9281,3.8,12.73,47.84626,-54.09684
2020-12-31 18:29:01+00:00,204.5614,3.89,12.73,47.84626,-54.09684
2020-12-31 18:39:01+00:00,207.5864,4.28,12.73,47.84626,-54.09684
2020-12-31 18:49:01+00:00,197.7281,4.5,12.73,47.84626,-54.09684
2020-12-31 18:59:01+00:00,196.0848,4.21,12.73,47.84626,-54.09684
2020-12-31 19:09:01+00:00,205.1165,3.98,12.73,47.84626,-54.09684
2020-12-31 19:19:01+00:00,206.2814,4.02,12.65,47.84626,-54.09684
2020-12-31 19:29:01+00:00,207.0898,4.1,12.65,47.84626,-54.09684
2020-12-31 19:39:01+00:00,212.5247,4.1,12.65,47.84626,-54.09684
2020-12-31 19:49:01+00:00,217.5797,4.2,12.65,47.84626,-54.09684
2020-12-31 19:59:01+00:00,219.5648,4.1,12.65,47.84626,-54.09684
2020-12-31 20:09:01+00:00,220.5565,4.05,12.65,47.84626,-54.09684
2020-12-31 20:19:01+00:00,227.1498,4.0,12.65,47.84626,-54.09684
2020-12-31 20:29:01+00:00,233.7531,4.0,12.65,47.84626,-54.09684
2020-12-31 20:39:01+00:00,234.2515,4.0,12.65,47.84626,-54.09684
2020-12-31 20:49:01+00:00,238.1931,4.0,12.65,47.84626,-54.09684
2020-12-31 20:59:01+00:00,245.8898,3.99,12.65,47.84626,-54.09684
2020-12-31 21:09:01+00:00,251.6864,3.99,12.65,47.84626,-54.09684
2020-12-31 21:19:01+00:00,257.778,3.99,12.57,47.84626,-54.09684
2020-12-31 21:29:01+00:00,267.1981,3.96,12.57,47.84626,-54.09684
2020-12-31 21:39:01+00:00,270.3497,3.9,12.57,47.84626,-54.09684
2020-12-31 21:49:01+00:00,269.1064,3.95,12.57,47.84626,-54.09684
2020-12-31 21:59:01+00:00,280.188,3.9,12.57,47.84626,-54.09684
2020-12-31 22:09:01+00:00,289.2864,3.9,12.57,47.84626,-54.09684
2020-12-31 22:19:01+00:00,289.5764,3.91,12.57,47.84626,-54.09684
2020-12-31 22:29:01+00:00,295.0081,3.9,12.57,47.84626,-54.09684
2020-12-31 22:39:01+00:00,308.8047,3.9,12.57,47.84626,-54.09684
2020-12-31 22:49:01+00:00,312.0797,3.9,12.57,47.84626,-54.09684
2020-12-31 22:59:01+00:00,310.7396,3.9,12.57,47.84626,-54.09684
2020-12-31 23:09:01+00:00,313.8413,3.9,12.57,47.84626,-54.09684
2020-12-31 23:19:01+00:00,321.2247,3.9,12.57,47.84626,-54.09684
2020-12-31 23:29:01+00:00,325.9013,3.9,12.57,47.84626,-54.09684
2020-12-31 23:39:01+00:00,331.4746,3.9,12.57,47.84626,-54.09684
2020-12-31 23:49:01+00:00,337.9647,3.9,12.57,47.84626,-54.09684
2020-12-31 23:59:01+00:00,343.1946,3.9,12.57,47.84626,-54.09684
